This is the latest recevied weather packets stored in our database for station/object KL4TQ. If no packets are shown the sender has not sent any weather packets the latest 10 day(s).
| Time | Temp. | Humidity | Pressure | Rain* | Wind** | Luminosity | Snow |
|---|---|---|---|---|---|---|---|
| 1778109969 | 3.33° C | 50% | 857 hPa | 0 mm | - | 632 W/m² | - |
| 1778109668 | 3.89° C | 48% | 857 hPa | 0 mm | - | 502 W/m² | - |
| 1778109369 | 3.89° C | 49% | 857 hPa | 0 mm | - | 564 W/m² | - |
| 1778109068 | 3.89° C | 48% | 857 hPa | 0 mm | - | 612 W/m² | - |
| 1778108769 | 4.44° C | 49% | 857 hPa | 0 mm | - | 644 W/m² | - |
| 1778108468 | 3.89° C | 48% | 857 hPa | 0 mm | - | 767 W/m² | - |
| 1778108168 | 3.89° C | 51% | 857 hPa | 0 mm | - | 708 W/m² | - |
| 1778107868 | 3.89° C | 51% | 857 hPa | 0 mm | - | 713 W/m² | - |
| 1778107569 | 3.89° C | 52% | 857 hPa | 0 mm | - | 602 W/m² | - |
| 1778107268 | 3.33° C | 53% | 857 hPa | 0 mm | - | 694 W/m² | - |
| 1778106969 | 3.33° C | 52% | 857 hPa | 0 mm | - | 670 W/m² | - |
| 1778106669 | 3.89° C | 53% | 857 hPa | 0 mm | - | 683 W/m² | - |
| 1778106368 | 3.89° C | 53% | 857 hPa | 0 mm | - | 719 W/m² | - |
| 1778106068 | 3.89° C | 53% | 857 hPa | 0 mm | - | 730 W/m² | - |
| 1778105768 | 3.33° C | 53% | 857 hPa | 0 mm | - | 726 W/m² | - |
| 1778105469 | 3.33° C | 52% | 857 hPa | 0 mm | - | 723 W/m² | - |
| 1778105168 | 3.33° C | 54% | 857 hPa | 0 mm | - | 726 W/m² | - |
| 1778104869 | 3.33° C | 56% | 857 hPa | 0 mm | - | 741 W/m² | - |
| 1778104568 | 3.33° C | 56% | 857 hPa | 0 mm | - | 740 W/m² | - |
| 1778104268 | 3.33° C | 55% | 857 hPa | 0 mm | - | 755 W/m² | - |
| 1778103968 | 2.78° C | 57% | 857 hPa | 0 mm | - | 672 W/m² | - |
| 1778103671 | 2.78° C | 58% | 857 hPa | 0 mm | - | 658 W/m² | - |
| 1778103369 | 2.78° C | 57% | 857 hPa | 0 mm | - | 783 W/m² | - |
| 1778103069 | 2.78° C | 55% | 857 hPa | 0 mm | - | 736 W/m² | - |
| 1778102769 | 2.78° C | 57% | 857 hPa | 0 mm | - | 641 W/m² | - |
* Rain latest hour (hover to see other rain measurements)
** Current wind speed in m/s (hover to see current wind gust speed)